Regional Weather Roundup
Issued by NWS

Home | Current Version | Previous Version | Graphics & Text | Print | Product List | Glossary On
Versions: 1 2 3 4 5 6 7 8 9 10 11 12 13 14 15 16 17 18 19 20 21 22 23 24 25 26 27 28 29 30 31 32 33 34 35 36 37 38 39 40 41 42 43 44 45 46 47 48 49 50
000
ASUS44 KMEG 180700
RWRTN
TENNESSEE HOURLY STATE WEATHER ROUNDUP
NATIONAL WEATHER SERVICE MEMPHIS TN
100 AM CST WED JAN 18 2017

TNZ002-004-019-021-049-052-054-088>092-180800-
WEST TENNESSEE

CITY           SKY/WX    TMP DP  RH WIND       PRES   REMARKS
MEMPHIS INTL   CLOUDY    47  41  80 NE7       30.18R
NWS MEMPHIS      N/A     46 N/A N/A MISG        N/A
JACKSON        MOCLDY    45  42  89 N5        30.17S
DYERSBURG      MOCLDY    39  37  93 CALM      30.18F
UNION CITY     CLOUDY    45  43  93 CALM      30.16F
PARIS          CLOUDY    41  37  87 CALM      30.16S
$$

TNZ008-025-027-028-033-062-065-066-180800-
NORTH MIDDLE TENNESSEE

CITY           SKY/WX    TMP DP  RH WIND       PRES   REMARKS
NASHVILLE      CLOUDY    50  42  74 NW7       30.14S
CLARKSVILLE    CLOUDY    45  38  76 NW8       30.16F
SMYRNA         CLOUDY    49  45  86 NW7       30.15S
CROSSVILLE     CLOUDY    49  46  90 W9        30.11R
$$

TNZ061-075-076-078-094-096-097-180800-
SOUTH MIDDLE TENNESSEE

CITY           SKY/WX    TMP DP  RH WIND       PRES   REMARKS
TULLAHOMA      CLOUDY    50  48  93 NW10      30.13S
WINCHESTER     CLOUDY    57  52  82 W5        30.12S
MCMINNVILLE    CLOUDY    52  48  87 NW5       30.11F
COLUMBIA       CLEAR     48  48 100 NW3       30.13F
SHELBYVILLE    CLOUDY    54  48  82 NW6       30.14S
$$

TNZ017-018-042-046-047-180800-
NORTHEAST TENNESSEE

CITY           SKY/WX    TMP DP  RH WIND       PRES   REMARKS
TRI CITIES     CLOUDY    58  55  90 W8        30.02S
$$

TNZ012-013-036-069-073-074-180800-
CENTRAL EAST TENNESSEE

CITY           SKY/WX    TMP DP  RH WIND       PRES   REMARKS
KNOXVILLE      LGT RAIN  58  54  86 W12       30.07R
OAK RIDGE      CLOUDY    58  49  72 W7        30.08S
GATLINBURG     CLOUDY    57  54  88 W12       30.06R
$$

TNZ083-085-099-180800-
SOUTHEAST TENNESSEE

CITY           SKY/WX    TMP DP  RH WIND       PRES   REMARKS
CHATTANOOGA    CLOUDY    65  57  75 SW7       30.08F
$$

SKY/WX REPORTED AS FAIR MEANS FEW OR NO CLOUDS BELOW
12 THOUSAND FEET.





USA.gov is the U.S. government's official web portal to all federal, state and local government web resources and services.